Tracking 29781 objects as of 15-Oct-2024
HD Live streaming from Space Station
objects crossing your sky now

FLOCK 4Q 26

Track FLOCK 4Q 26 now!
10-day predictions
FLOCK 4Q 26 is classified as:


NORAD ID: 58284
Int'l Code: 2023-174AE
Perigee: 491.2 km
Apogee: 505.4 km
Inclination: 97.4 °
Period: 94.4 minutes
Semi major axis: 6869 km
RCS: Unknown
Launch date: November 11, 2023
Source: United States (US)
Launch site: AIR FORCE WESTERN TEST RANGE (AFWTR)
Your satellite tracking list
Your tracking list is empty




NASA's NSSDC Master Catalog

Two Line Element Set (TLE):
1 58284U 23174AE  24289.47447113  .00024886  00000-0  10003-2 0  9994
2 58284  97.4492   3.2559 0010316 170.9305 189.2121 15.24867475 52015
Source of the keplerian elements: AFSPC